Ana Sayfa
METAR-TAF:

METAR-TAF

Havaalanları :

Dillon Airport

Dillon, Montana, Amerika Birleşik Devletleri

Enlem: 45-15-27N, Boylam: 112-33-16W, yükseklik: 1597 m

Güncel hava durumu gözlemi

Rapor saat 14:53 UTC de 41 dakika önce yapıldı.
Rüzgar güney/güneybatıdan 11 kt
Sıcaklık -6°C
Nem 68%
Basınç 1019 hPa
Görüş mesafesi: 16.1 km
Açık gökyüzü

METAR: KDLN 241453Z AUTO 20011KT 10SM CLR M06/M11 A3009 RMK AO2 SLP229 T10561111 51012

Saat: 08:34 (15:34 UTC)


TAF: eksik

4.000'den fazla havaalanı için hava durumu gözlemleri ve tahminleri (METAR ve TAF raporları).

Kullanılabilir istasyonlar harita üzerinde sarı ve kırmızı noktalarla gösterilir.

İstasyonun adını görmek için fareyi noktanın üzerinde gezdirin.

Sonrasında hava gözlem ve tahminlerini görmek için tıklayın.

Haritayı değiştirmek için: yaklaştırmak için siyah artı işaretli yeşil düğmeye ve uzaklaştırmak için de eksi işaretli düğmeye hızla tıklayın; bitişik haritalar için yeşil okları kullanın.


METAR-TAF: